Weather History for New York JFK, NY

Change the Weather History Date:

Tuesday, December 4, 2012

  Actual Average Record
Temperature  
Mean Temperature 51 °F 41 °F  
Max Temperature 58 °F 48 °F 70 °F (1982)
Min Temperature 43 °F 35 °F 15 °F (1966)
Degree Days  
Heating Degree Days 14 24  
Month to date heating degree days 68 93  
Since 1 July heating degree days 907 917  
Cooling Degree Days 0 0  
Month to date cooling degree days 0 0  
Year to date cooling degree days 1229 1005  
Moisture  
Dew Point 50 °F    
Average Humidity 93    
Maximum Humidity 100    
Minimum Humidity 86    
Precipitation  
Precipitation 0.02 in 0.12 in 2.05 in (1968)
Month to date precipitation 0.06 0.48  
Year to date precipitation 34.97 39.86  
Snow  
Snow 0.00 in 0.10 in 3.20 in (2005)
Month to date snowfall 0.0 0.3  
Since 1 July snowfall 4.3 0.5  
Snow Depth 0.00 in    
Sea Level Pressure  
Sea Level Pressure 30.18 in    
Wind  
Wind Speed 9 mph (South)    
Max Wind Speed 20 mph    
Max Gust Speed 24 mph    
Visibility 4 miles    
Events Fog , Rain    
T = Trace of Precipitation, MM = Missing Value Source: NWS Daily Summary

Daily Weather History Graph

Daily Weather History Graph

Search for Another Location

Airport:

Trip Planner

Search our weather history database for the weather conditions in past years. The results will help you decide how hot, cold, wet, or windy it might be!

Date:

Astronomy

Dec. 04, 2012 Rise Set
Actual Time 7:02 AM EST 4:27 PM EST
Civil Twilight 6:32 AM EST 4:58 PM EST
Nautical Twilight 5:58 AM EST 5:32 PM EST
Astronomical Twilight 5:25 AM EST 6:05 PM EST
Moon 10:13 PM EST (12/4) 10:54 AM EST (12/4)
Length of Visible Light 10h 26m
Length of Day
9h 24m
Waning Gibbous, 69% of the Moon is Illuminated
Dec 4
Waning Gibbous
Dec 6
Last Quarter
Dec 13
New
Dec 20
First Quarter
Dec 28
Full

Hourly Weather History & Observations

Time (EST) Temp. Windchill Dew Point Humidity Pressure Visibility Wind Dir Wind Speed Gust Speed Precip Events Conditions
12:51 AM 45.0 °F 43.5 °F 42.1 °F 90% 30.28 in 9.0 mi NE 3.5 mph - N/A   Scattered Clouds
1:51 AM 44.1 °F - 41.0 °F 89% 30.29 in 9.0 mi Calm Calm - N/A   Scattered Clouds
2:51 AM 44.1 °F 40.8 °F 41.0 °F 89% 30.27 in 8.0 mi ENE 5.8 mph - N/A   Mostly Cloudy
3:51 AM 45.0 °F 43.5 °F 43.0 °F 93% 30.28 in 8.0 mi East 3.5 mph - N/A   Overcast
4:51 AM 46.9 °F - 44.1 °F 90% 30.28 in 9.0 mi ESE 4.6 mph - N/A   Overcast
5:51 AM 50.0 °F - 46.9 °F 89% 30.27 in 6.0 mi Calm Calm - N/A   Overcast
6:51 AM 50.0 °F - 48.0 °F 93% 30.28 in 4.0 mi Calm Calm - 0.01 in Rain Light Rain
7:51 AM 51.1 °F - 48.9 °F 92% 30.29 in 4.0 mi Calm Calm - 0.01 in   Overcast
8:03 AM 51.8 °F - 50.0 °F 94% 30.29 in 2.5 mi Calm Calm - 0.00 in Rain Light Rain
8:51 AM 54.0 °F - 53.1 °F 97% 30.28 in 3.0 mi South 9.2 mph - 0.00 in   Mostly Cloudy
9:51 AM 54.0 °F - 52.0 °F 93% 30.29 in 3.0 mi South 10.4 mph - 0.00 in   Overcast
10:51 AM 55.0 °F - 53.1 °F 93% 30.27 in 5.0 mi South 11.5 mph - N/A   Mostly Cloudy
11:21 AM 55.4 °F - 53.6 °F 94% 30.26 in 5.0 mi South 11.5 mph - N/A   Mostly Cloudy
11:51 AM 55.9 °F - 53.1 °F 90% 30.23 in 6.0 mi South 12.7 mph - N/A   Mostly Cloudy
12:51 PM 57.0 °F - 53.1 °F 87% 30.20 in 7.0 mi South 16.1 mph - N/A   Mostly Cloudy
1:51 PM 55.9 °F - 52.0 °F 87% 30.18 in 6.0 mi South 16.1 mph - N/A   Mostly Cloudy
2:51 PM 55.0 °F - 53.1 °F 93% 30.16 in 6.0 mi South 13.8 mph - N/A   Mostly Cloudy
3:04 PM 55.4 °F - 53.6 °F 94% 30.16 in 1.0 mi South 16.1 mph - N/A   Mostly Cloudy
3:19 PM 53.6 °F - 51.8 °F 94% 30.16 in 0.0 mi South 17.3 mph - N/A   Mostly Cloudy
3:51 PM 54.0 °F - 52.0 °F 93% 30.15 in 0.0 mi South 18.4 mph - N/A   Mostly Cloudy
4:44 PM 53.6 °F - 53.6 °F 100% 30.14 in 0.0 mi South 16.1 mph - N/A Fog Fog
4:51 PM 53.1 °F - 53.1 °F 100% 30.14 in 0.0 mi South 17.3 mph - N/A Fog Fog
5:39 PM 53.6 °F - 51.8 °F 94% 30.13 in 0.0 mi South 16.1 mph - N/A Fog Fog
5:51 PM 52.0 °F - 52.0 °F 100% 30.13 in 0.0 mi South 13.8 mph - N/A Fog Fog
6:07 PM 51.8 °F - 51.8 °F 100% 30.13 in 0.0 mi South 13.8 mph - N/A Fog Fog
6:51 PM 52.0 °F - 52.0 °F 100% 30.12 in 0.0 mi SSW 9.2 mph - N/A Fog Fog
7:29 PM 51.8 °F - 51.8 °F 100% 30.11 in 0.5 mi South 8.1 mph - N/A Fog Fog
7:42 PM 51.8 °F - 51.8 °F 100% 30.10 in 1.0 mi South 8.1 mph - N/A   Overcast
7:51 PM 52.0 °F - 52.0 °F 100% 30.09 in 1.0 mi South 10.4 mph - N/A   Overcast
8:01 PM 51.8 °F - 51.8 °F 100% 30.10 in 2.0 mi SSW 9.2 mph - N/A   Overcast
8:14 PM 51.8 °F - 51.8 °F 100% 30.09 in 5.0 mi SSW 10.4 mph - N/A   Overcast
8:51 PM 52.0 °F - 51.1 °F 97% 30.08 in 7.0 mi SSW 10.4 mph - N/A   Mostly Cloudy
9:14 PM 51.8 °F - 51.8 °F 100% 30.06 in 8.0 mi South 12.7 mph - N/A   Mostly Cloudy
9:51 PM 51.1 °F - 50.0 °F 96% 30.06 in 7.0 mi South 11.5 mph - N/A   Mostly Cloudy
10:51 PM 51.1 °F - 50.0 °F 96% 30.04 in 7.0 mi SSW 9.2 mph - N/A   Scattered Clouds
11:51 PM 52.0 °F - 50.0 °F 93% 30.01 in 9.0 mi South 15.0 mph - N/A   Mostly Cloudy